2006 AN98

Initial reported observation by Maunakea on 2006-01-05.
(Discoverer will be defined when the object is numbered. See this note on how discoverers are determined.)

Orbit

Orbit type: Distant object

Note: WebGL enabled browser required.

epoch2023-02-25.0
epoch JD2460000.5
perihelion date2043-05-03.71674
perihelion JD2467373.21674
argument of perihelion (°)84.79621
ascending node (°)93.80289
inclination (°)1.91335
eccentricity0.0279617
perihelion distance (AU)41.6842418
Tisserand w.r.t. Jupiter5.9
ΔV w.r.t. Earth (km/sec)12.5
semimajor axis (AU)42.8833348
mean anomaly (°)334.12392
mean daily motion (°/day)0.00350970
aphelion distance (AU)44.082
period (years)281
P-vector [x]-0.99914709
P-vector [y]0.00923806
P-vector [z]0.04024609
Q-vector [x]-0.02439745
Q-vector [y]-0.91840932
Q-vector [z]-0.39487857
absolute magnitude8.09
phase slope0.15
uncertainty5
referenceMPO 725184
observations used20
oppositions4
arc length (days)5801
first opposition used2005
last opposition used2021
residual rms (arc-secs)0.32
perturbers coarse indicatorM-v
perturbers precise indicator003El
first observation date used2005-04-05.0
last observation date used2021-02-21.0
computer nameAlexanders
Minimum Orbit Intersection Distances (in AU)
for orbit epoch: 2459800.5, reference: E2022-W29
Mercury41.2635
Venus40.9439
Earth40.6689
Mars40.0104
Jupiter36.2151
Saturn31.9681
Uranus23.1719
Neptune10.9419

Observations

20 total observations over interval: 2005 04 05.324492 – 2021 02 21.215056
These data are available for download (format description).

Date (UT) J2000 RA J2000 Dec Magn Location Ref
2005 04 05.324492 08 34 39.67 +19 48 02.1   T14 – Canada-France-Hawaii Telescope, Maunakea MPS 1703200
2005 04 06.270391 08 34 38.55 +19 48 05.2   T14 – Canada-France-Hawaii Telescope, Maunakea MPS 1703200
2005 04 06.335655 08 34 38.45 +19 48 05.7   T14 – Canada-France-Hawaii Telescope, Maunakea MPS 1703200
2006 01 05.60000 08 46 15.21 +19 07 12.9   568 – Maunakea MPS 162894
2006 01 05.632185 08 46 15.02 +19 07 12.6   T09 – Subaru Telescope, Maunakea MPS 1703200
2006 01 05.65653 08 46 14.89 +19 07 13.2   568 – Maunakea MPS 162894
2006 01 06.63376 08 46 10.56 +19 07 31.8 24.2 R 568 – Maunakea MPS 162894
2006 01 06.65528 08 46 10.46 +19 07 32.0 24.2 R 568 – Maunakea MPS 162894
2006 02 01.282830 08 44 04.83 +19 15 52.6   T09 – Subaru Telescope, Maunakea MPS 1703200
2006 02 01.294962 08 44 04.77 +19 15 52.9   T09 – Subaru Telescope, Maunakea MPS 1703200
2006 02 01.308192 08 44 04.71 +19 15 53.0   T09 – Subaru Telescope, Maunakea MPS 1703200
2006 02 02.323506 08 43 59.60 +19 16 13.3 23.9 V T09 – Subaru Telescope, Maunakea MPS 1703200
2006 02 02.337512 08 43 59.54 +19 16 13.6   T09 – Subaru Telescope, Maunakea MPS 1703200
2006 02 02.351537 08 43 59.46 +19 16 13.8   T09 – Subaru Telescope, Maunakea MPS 1703200
2006 05 30.257307 08 41 20.67 +19 24 34.7   T09 – Subaru Telescope, Maunakea MPS 1703200
2006 05 30.271249 08 41 20.71 +19 24 34.4   T09 – Subaru Telescope, Maunakea MPS 1703200
2006 05 30.284326 08 41 20.77 +19 24 34.2   T09 – Subaru Telescope, Maunakea MPS 1703200
2006 05 30.297449 08 41 20.81 +19 24 34.0   T09 – Subaru Telescope, Maunakea MPS 1703200
2006 11 24.483195 08 53 57.77 +18 37 47.4   T14 – Canada-France-Hawaii Telescope, Maunakea MPS 1703200
2021 02 21.215056 10 04 45.41 +13 30 32.9   W84 – Cerro Tololo-DECam MPS 1703200